Back to catalog

THOR ABLESTAR DEB

AliveLEO
NORAD 559·DEBRIS·🇺🇸 United States

Launched Jun 29, 1961 from Cape Canaveral Space Force Station

Loading…

Next Passes (next 24 hours)

TLE

FreshSource: Space-Track

Epoch: Sep 14, 2026, 09:48 UTC

1 00559U 61015GR  26257.40840157  .00005897  00000-0  89236-3 0  9993
2 00559  66.5982  39.9586 0032735  93.3895 267.0971 14.74557307362921

Track THOR ABLESTAR DEB in real time with AllMySat

Download on the App Store